Home   Weather   A Coruña   Past weeks

Flag for Spain Past Weather in A Coruña, Spain — Yesterday and Last 2 Weeks

Now
51 °F

Cool.


Feels Like: 49 °F
Forecast: 55 / 64 °F
Wind: 7 mph from Southeast

Location: La Coruna

Current Time: Dec 3, 2016 at 1:22:04 am

Latest Report: Dec 3, 2016 at 12:00 am


Visibility: 13 mi

Pressure: 29.93 "Hg

Humidity: 88%

Dew Point: 48 °F

Location of A CoruñaLocation

Past Weather in A Coruña — Graph

°F

A Coruña Temperature Yesterday

Maximum temperature yesterday: 61 °F (at 3:00 pm)
Minimum temperature yesterday: 49 °F (at 9:00 am)
Average temperature yesterday: 54 °F

High & Low Weather Summary for the Past Weeks

 TemperatureHumidityPressure
High64 °F (Nov 30, 3:00 pm)98% (Nov 20, 9:00 am)30.23 "Hg (Nov 20, 9:00 am)
Low43 °F (Nov 22, 7:00 am)52% (Nov 25, 3:00 pm)29.21 "Hg (Nov 21, 3:00 am)
Average53 °F79%29.87 "Hg
* Reported Nov 18 12:00 am — Dec 3 12:00 am, A Coruña, Weather by CustomWeather, © 2016

Note: Actual official high and low records may vary slightly from our data, if they occured in-between our weather recording intervals... More about our weather records

Advertising

A Coruña Weather History for the Previous 24 Hours

Scroll right to see more
 ConditionsComfort  
Time TempWeatherWind HumidityBarometerVisibility
12:00 am
Sat, Dec 3
51 °FCool.7 mph88%29.93 "Hg12 mi
11:00 pm
Fri, Dec 2
51 °FCool.5 mph90%29.95 "Hg11 mi
10:00 pm53 °FClear.2 mph90%29.96 "Hg9 mi
9:00 pm53 °FCool.2 mph90%29.98 "Hg12 mi
8:00 pm54 °FCool.3 mph88%29.99 "Hg12 mi
7:00 pm55 °FCool.2 mph92%29.99 "Hg12 mi
6:00 pm56 °FCool.3 mph87%29.99 "Hg12 mi
5:00 pm57 °FCool.3 mph78%30.01 "Hg12 mi
4:00 pm59 °FCool.2 mph71%30.02 "Hg12 mi
3:00 pm61 °FCool.2 mph68%30.03 "Hg12 mi
9:00 am49 °FCool.2 mph84%30.13 "Hg12 mi
8:00 am51 °FCool.5 mph82%30.13 "Hg12 mi
7:00 am51 °FCool.5 mph82%30.13 "Hg12 mi
6:00 am51 °FCool.6 mph82%30.13 "Hg12 mi
5:00 am51 °FCool.5 mph84%30.13 "Hg12 mi
4:00 am53 °FClear.6 mph80%30.14 "Hg9 mi
3:00 am53 °FCool.2 mph81%30.15 "Hg12 mi
2:00 am54 °FCool.3 mph79%30.16 "Hg12 mi
1:00 am54 °FPassing clouds.1 mph81%30.16 "Hg9 mi
Weather by CustomWeather, © 2016

See weather overviewHow to use our weather pages